Content
SEND FEEDBACK

Mexico Flag

MORELIA, MICHOACAN


Home > North America > Mexico > Michoacan
Elevation: 6275 feet     Latitude: 19 42N     Longitude: 101 11W

WEATHER
 
SELECT A DAY
Number of Records: 167,776;   Date Range: 1/1/95 - 3/22/16
 
SHARE

PRINT THIS DATA

[ ← Previous Day ]
WEATHER ALMANAC - SEPTEMBER 28, 2013
[ Next Day → ]
[ °C ]   °F
Weather ElementAverageHighLow
Temperature63.3 °F81 °F (3:50 pm)48.2 °F (6:45 am)
Dewpoint55.3 °F60.8 °F (5:42 pm)48.2 °F (6:45 am)
Humidity76.6 %100 % (4:40 am)35 % (3:50 pm)
Barometer30.07 in30.29 in (10:40 am)29.74 in (6:50 pm)
Wind Speed2.5 mph11.5 mph (6:46 pm)
Weather ElementAverage
Visibility7.2 mi
Wind DirectionE (87.5 °)

Weather ElementTotal
Precipitation---
Heating Degree Days0.4 (Base 65)
Growing Degree Days14.6 (Base 50)
Averaged from 32 records on September 28, 2013
WEATHER CONDITIONS BREAKOUT
WIND DIRECTION BREAKOUT
WEATHER BY HOUR - SEPTEMBER 28, 2013
[ °C ]   °F
Local TimeTemperatureDewpointHumidityBarometerVisibilityWind DirectionWind SpeedGust SpeedPrecipitationEventsConditions
2:43 AM53.6 °F51.8 °F94 %30.21 in8.0 miCalmClear
3:45 AM51.8 °F50.0 °F94 %29.78 in8.0 miCalmClear
3:55 AM55.0 °F54.0 °F94 %29.82 in5.0 miSSW (200°)2.2 mph
4:40 AM50.0 °F50.0 °F100 %30.19 in8.0 miCalmClear
5:43 AM50.0 °F50.0 °F100 %30.20 in8.0 miCalmClear
6:45 AM48.2 °F48.2 °F100 %29.89 in8.0 miCalmClear
6:50 AM53.0 °F51.0 °F91 %29.90 in6.0 miSSW (200°)2.2 mph
7:46 AM48.2 °F48.2 °F100 %30.23 in8.0 miCalmClear
8:28 AM53.6 °F51.8 °F94 %30.25 in8.0 miCalmPartly Cloudy
8:50 AM55.4 °F53.6 °F94 %30.26 in8.0 miCalmPartly Cloudy
9:33 AM60.8 °F55.4 °F82 %30.28 in8.0 miWSW (250°)2.3 mphPartly Cloudy
9:48 AM62.6 °F55.4 °F77 %29.91 in8.0 miCalmPartly Cloudy
9:55 AM60.0 °F52.0 °F69 %29.97 in6.0 miSSE (160°)2.2 mph
10:40 AM64.4 °F55.4 °F73 %30.29 in8.0 miCalmPartly Cloudy
11:14 AM69.8 °F55.4 °F60 %30.28 in8.0 miCalmClear
11:43 AM71.6 °F55.4 °F57 %30.28 in8.0 miCalmClear
12:47 PM75.2 °F55.4 °F50 %29.86 in8.0 miESE (110°)2.3 mphPartly Cloudy
12:55 PM72.0 °F58.0 °F51 %29.92 in7.0 miSSE (160°)2.2 mph
1:46 PM77.0 °F55.4 °F47 %30.23 in8.0 miSW (230°)8.1 mphPartly Cloudy
2:42 PM77.0 °F53.6 °F44 %30.20 in8.0 miSSE (160°)4.6 mphMostly Cloudy
3:42 PM77.0 °F59.0 °F54 %29.78 in8.0 miSouth (170°)10.4 mphMostly Cloudy
3:50 PM81.0 °F58.0 °F35 %29.82 in7.0 miSW (220°)2.2 mphPartly Cloudy
4:49 PM75.2 °F57.2 °F53 %30.16 in8.0 miSSE (150°)6.9 mphMostly Cloudy
5:42 PM68.0 °F60.8 °F78 %30.17 in7.0 miEast (100°)10.4 mphMostly Cloudy
6:46 PM66.2 °F60.8 °F83 %29.86 in7.0 miEast (100°)11.5 mphOvercast
6:50 PM74.0 °F56.0 °F43 %29.74 in7.0 miWest (270°)4.5 mphPartly Cloudy
7:41 PM62.6 °F60.8 °F94 %30.21 in7.0 miCalmOvercast
8:45 PM62.6 °F59.0 °F88 %30.23 in7.0 miCalmOvercast
9:42 PM62.6 °F60.8 °F94 %29.86 in5.0 miCalmOvercast
9:50 PM65.0 °F58.0 °F71 %29.80 in5.0 miWSW (240°)2.2 mphPartly Cloudy
10:43 PM60.8 °F59.0 °F94 %30.28 in5.0 miCalmMostly Cloudy
11:47 PM60.8 °F59.0 °F94 %30.29 in5.0 miEast (80°)4.6 mphMostly Cloudy
Hourly data recorded from MMMM, located miles away from Morelia, Michoacan




STORIES FROM OUR PARTNERS